When you browse on this site, cookies collect data to enhance your experience and personalize the content and advertising you see.
Visit our Privacy Policy to learn more. By continuing to use the site, you agree to this use of cookies and data.
  • In United Kingdom
  • List of Countries
  • For 7 days
  • Water Temperature
  • Weather Map
  • Weather Widgets
  • user-avatar
    Login

    Hourly Weather Innsbruck

    Today, 23 February, Sunday

    Time Temperature Precipitation Wind Pressure Humidity
    00:00 -2°C° 0 mm 2 mps 600 mmHg 53%
    01:00 -2°C° 0 mm 2 mps 600 mmHg 54%
    02:00 -2°C° 0 mm 2 mps 600 mmHg 55%
    03:00 -2°C° 0 mm 2 mps 599 mmHg 57%
    04:00 -3°C° 0 mm 2 mps 599 mmHg 59%
    05:00 -2°C° 0 mm 2 mps 599 mmHg 60%
    06:00 -2°C° 0 mm 2 mps 599 mmHg 61%
    07:00 0°C° 0 mm 1 mps 599 mmHg 63%
    08:00 -1°C° 0 mm 2 mps 599 mmHg 68%
    09:00 -1°C° 0 mm 2 mps 599 mmHg 73%
    10:00 +1°C° 0 mm 2 mps 599 mmHg 78%
    11:00 +2°C° 0.1 mm 2 mps 599 mmHg 81%
    12:00 +3°C° 0.1 mm 2 mps 599 mmHg 83%
    13:00 +3°C° 0.1 mm 2 mps 599 mmHg 86%
    14:00 +3°C° 0.2 mm 2 mps 598 mmHg 88%
    15:00 +3°C° 0.2 mm 2 mps 598 mmHg 90%
    16:00 +2°C° 0.2 mm 3 mps 597 mmHg 91%
    17:00 +3°C° 0 mm 2 mps 597 mmHg 91%
    18:00 +2°C° 0 mm 2 mps 597 mmHg 90%
    19:00 +2°C° 0 mm 2 mps 597 mmHg 89%
    20:00 +2°C° 0.1 mm 2 mps 597 mmHg 90%
    21:00 +2°C° 0.1 mm 2 mps 597 mmHg 91%
    22:00 +1°C° 0.1 mm 2 mps 597 mmHg 92%
    23:00 +1°C° 0.1 mm 2 mps 597 mmHg 93%

    Tomorrow, 24 February, Monday

    Time Temperature Precipitation Wind Pressure Humidity
    00:00 +1°C° 0.1 mm 2 mps 597 mmHg 93%
    01:00 -1°C° 0.1 mm 2 mps 597 mmHg 93%
    02:00 -1°C° 0.6 mm 2 mps 597 mmHg 94%
    03:00 -1°C° 0.6 mm 2 mps 597 mmHg 96%
    04:00 -1°C° 0.6 mm 2 mps 597 mmHg 97%
    05:00 -1°C° 1.2 mm 2 mps 597 mmHg 97%
    06:00 -1°C° 1.2 mm 2 mps 598 mmHg 97%
    07:00 -2°C° 1.2 mm 2 mps 598 mmHg 97%
    08:00 -1°C° 0.6 mm 2 mps 598 mmHg 97%
    09:00 -1°C° 0.6 mm 2 mps 598 mmHg 97%
    10:00 +1°C° 0.6 mm 1 mps 598 mmHg 97%
    11:00 +2°C° 0.1 mm 1 mps 598 mmHg 96%
    12:00 +2°C° 0.1 mm 1 mps 597 mmHg 95%
    13:00 +2°C° 0.1 mm 1 mps 597 mmHg 94%
    14:00 +3°C° 0 mm 1 mps 597 mmHg 91%
    15:00 +3°C° 0 mm 1 mps 596 mmHg 89%
    16:00 +4°C° 0 mm 1 mps 596 mmHg 86%
    17:00 +2°C° 0 mm 2 mps 595 mmHg 84%
    18:00 +1°C° 0 mm 2 mps 595 mmHg 82%
    19:00 -1°C° 0 mm 2 mps 594 mmHg 79%
    20:00 -2°C° 0 mm 2 mps 594 mmHg 77%
    21:00 -2°C° 0 mm 2 mps 593 mmHg 76%
    22:00 -2°C° 0 mm 2 mps 593 mmHg 74%
    23:00 -2°C° 0 mm 2 mps 592 mmHg 75%

    Day after tomorrow, 25 February, Tuesday

    Time Temperature Precipitation Wind Pressure Humidity
    00:00 -3°C° 0 mm 2 mps 592 mmHg 76%
    01:00 -3°C° 0 mm 2 mps 591 mmHg 77%
    02:00 -3°C° 0 mm 2 mps 591 mmHg 78%
    03:00 -3°C° 0 mm 2 mps 590 mmHg 79%
    04:00 -3°C° 0 mm 2 mps 590 mmHg 80%
    05:00 -3°C° 0 mm 2 mps 590 mmHg 81%
    06:00 -3°C° 0 mm 2 mps 589 mmHg 82%
    07:00 -3°C° 0 mm 2 mps 589 mmHg 82%
    08:00 0°C° 0 mm 1 mps 589 mmHg 82%
    09:00 +1°C° 0 mm 1 mps 589 mmHg 82%
    10:00 +1°C° 0 mm 1 mps 589 mmHg 82%
    11:00 +2°C° 0 mm 1 mps 589 mmHg 81%
    12:00 +2°C° 0 mm 1 mps 589 mmHg 81%
    13:00 +2°C° 0 mm 1 mps 589 mmHg 81%
    14:00 +2°C° 0.1 mm 1 mps 588 mmHg 83%
    15:00 +2°C° 0.1 mm 1 mps 588 mmHg 85%
    16:00 +1°C° 0.1 mm 1 mps 587 mmHg 88%
    17:00 +1°C° 0.4 mm 1 mps 587 mmHg 91%
    18:00 0°C° 0.4 mm 1 mps 586 mmHg 94%
    19:00 -1°C° 0.4 mm 1 mps 586 mmHg 97%
    20:00 -2°C° 0.7 mm 1 mps 586 mmHg 97%
    21:00 -2°C° 0.7 mm 1 mps 585 mmHg 97%
    22:00 -2°C° 0.7 mm 1 mps 585 mmHg 96%
    23:00 -3°C° 0.9 mm 1 mps 585 mmHg 96%

    26 February, Wednesday

    Time Temperature Precipitation Wind Pressure Humidity
    00:00 -3°C° 0.9 mm 1 mps 584 mmHg 96%
    01:00 -4°C° 0.9 mm 1 mps 584 mmHg 96%
    02:00 -4°C° 0.4 mm 1 mps 583 mmHg 95%
    03:00 -6°C° 0.4 mm 1 mps 582 mmHg 95%
    04:00 -6°C° 0.4 mm 1 mps 582 mmHg 94%
    05:00 -7°C° 0.1 mm 1 mps 581 mmHg 92%
    06:00 -8°C° 0.1 mm 1 mps 580 mmHg 90%
    07:00 -9°C° 0.1 mm 2 mps 580 mmHg 89%
    08:00 -8°C° 0.2 mm 2 mps 580 mmHg 84%
    09:00 -7°C° 0.2 mm 2 mps 581 mmHg 80%
    10:00 -6°C° 0.2 mm 2 mps 581 mmHg 75%
    11:00 -8°C° 0.6 mm 3 mps 581 mmHg 74%
    12:00 -8°C° 0.6 mm 3 mps 580 mmHg 73%
    13:00 -10°C° 0.6 mm 4 mps 580 mmHg 72%
    14:00 -11°C° 0.3 mm 4 mps 580 mmHg 71%
    15:00 -10°C° 0.3 mm 3 mps 580 mmHg 71%
    16:00 -12°C° 0.3 mm 3 mps 580 mmHg 71%
    17:00 -13°C° 0.2 mm 3 mps 580 mmHg 76%
    18:00 -14°C° 0.2 mm 3 mps 581 mmHg 82%
    19:00 -14°C° 0.2 mm 2 mps 581 mmHg 88%
    20:00 -13°C° 0.4 mm 2 mps 581 mmHg 89%
    21:00 -13°C° 0.4 mm 2 mps 582 mmHg 91%
    22:00 -13°C° 0.4 mm 2 mps 583 mmHg 93%
    23:00 -13°C° 0.5 mm 2 mps 583 mmHg 93%

    27 February, Thursday

    Time Temperature Precipitation Wind Pressure Humidity
    00:00 -13°C° 0.5 mm 2 mps 584 mmHg 93%
    01:00 -13°C° 0.5 mm 2 mps 584 mmHg 93%
    02:00 -13°C° 0.3 mm 2 mps 584 mmHg 93%
    03:00 -12°C° 0.3 mm 1 mps 584 mmHg 93%
    04:00 -12°C° 0.3 mm 1 mps 584 mmHg 94%
    05:00 -12°C° 0.4 mm 1 mps 585 mmHg 93%
    06:00 -14°C° 0.4 mm 2 mps 586 mmHg 93%
    07:00 -14°C° 0.4 mm 2 mps 586 mmHg 93%
    08:00 -13°C° 0.1 mm 2 mps 587 mmHg 85%
    09:00 -10°C° 0.1 mm 1 mps 587 mmHg 77%
    10:00 -9°C° 0.1 mm 1 mps 588 mmHg 69%
    11:00 -9°C° 0 mm 2 mps 588 mmHg 64%
    12:00 -8°C° 0 mm 2 mps 588 mmHg 59%
    13:00 -7°C° 0 mm 2 mps 588 mmHg 53%
    14:00 -7°C° 0 mm 2 mps 587 mmHg 56%
    15:00 -8°C° 0 mm 3 mps 586 mmHg 59%
    16:00 -8°C° 0 mm 3 mps 586 mmHg 62%
    17:00 -8°C° 0.2 mm 3 mps 585 mmHg 69%
    18:00 -10°C° 0.2 mm 4 mps 585 mmHg 75%
    19:00 -11°C° 0.2 mm 4 mps 584 mmHg 82%
    20:00 -11°C° 0.2 mm 4 mps 584 mmHg 82%
    21:00 -11°C° 0.2 mm 4 mps 584 mmHg 82%
    22:00 -11°C° 0.2 mm 4 mps 584 mmHg 83%
    23:00 -10°C° 0 mm 3 mps 584 mmHg 81%

    28 February, Friday

    Time Temperature Precipitation Wind Pressure Humidity
    00:00 -10°C° 0 mm 3 mps 584 mmHg 79%
    01:00 -12°C° 0 mm 3 mps 584 mmHg 77%
    02:00 -12°C° 0 mm 3 mps 584 mmHg 78%
    03:00 -10°C° 0 mm 2 mps 584 mmHg 78%
    04:00 -10°C° 0 mm 2 mps 584 mmHg 79%
    05:00 -10°C° 0.1 mm 2 mps 585 mmHg 80%
    06:00 -10°C° 0.1 mm 2 mps 585 mmHg 81%
    07:00 -10°C° 0.1 mm 2 mps 586 mmHg 83%
    08:00 -8°C° 0 mm 2 mps 587 mmHg 80%
    09:00 -4°C° 0 mm 1 mps 588 mmHg 78%
    10:00 -2°C° 0 mm 1 mps 589 mmHg 76%
    11:00 -1°C° 0 mm 1 mps 589 mmHg 73%
    12:00 0°C° 0 mm 1 mps 589 mmHg 70%
    13:00 -1°C° 0 mm 0 mps 589 mmHg 66%
    14:00 +1°C° 0 mm 1 mps 589 mmHg 68%
    15:00 +1°C° 0 mm 1 mps 589 mmHg 69%
    16:00 -1°C° 0 mm 2 mps 588 mmHg 70%
    17:00 -3°C° 0 mm 2 mps 587 mmHg 72%
    18:00 -5°C° 0 mm 3 mps 587 mmHg 73%
    19:00 -7°C° 0 mm 3 mps 586 mmHg 75%
    20:00 -7°C° 0 mm 3 mps 586 mmHg 76%
    21:00 -8°C° 0 mm 3 mps 585 mmHg 77%
    22:00 -8°C° 0 mm 3 mps 585 mmHg 78%
    23:00 -8°C° 0 mm 3 mps 585 mmHg 79%
    Show more